User: anonymous   Login
Location: Caltech
(34.1382°N, 118.1253°W)
Time: 20:47:43
(UTC-07:00)
Language:

AO-27 - Orbit

View from above orbital plane
View from above orbital plane
View from above satellite
View from above satellite

Ground track
Ground track

The orbit data is extracted from the following two-line orbital elements,

1 22825U 93061C   17230.53568414  .00000002  00000-0  18516-4 0  9994
2 22825  98.8181 196.9033 0008984 143.2456 216.9343 14.30003033246312
Epoch (UTC): 18 August 2017 12:51:23
Eccentricity: 0.0008984
inclination: 98.8181°
perigee height: 785 km
apogee height: 798 km
right ascension of ascending node: 196.9033°
argument of perigee: 143.2456°
revolutions per day: 14.30003033
mean anomaly at epoch: 216.9343°
orbit number at epoch: 24631

The dashed part of the orbit path shows where the satellite is in the earth's shadow,  

DLR